This is the latest recevied weather packets stored in our database for station/object K6FAK-13. If no packets are shown the sender has not sent any weather packets the latest 1 day(s).
| Time | Temp. | Humidity | Pressure | Rain* | Wind** | Luminosity | Snow |
|---|---|---|---|---|---|---|---|
| 1778023200 | 18.33° C | 77% | 1017.3 hPa | 0 mm | 1.34 m/s, 215° | 294 W/m² | - |
| 1778022897 | 17.78° C | 78% | 1017.5 hPa | 0 mm | 0.89 m/s, 220° | 237 W/m² | - |
| 1778022596 | 17.78° C | 78% | 1017.6 hPa | 0 mm | 3.13 m/s, 223° | 224 W/m² | - |
| 1778022293 | 17.78° C | 78% | 1017.7 hPa | 0 mm | 1.79 m/s, 178° | 270 W/m² | - |
| 1778021989 | 17.78° C | 78% | 1017.4 hPa | 0 mm | 3.58 m/s, 222° | 298 W/m² | - |
| 1778021686 | 17.78° C | 78% | 1017.5 hPa | 0 mm | 1.34 m/s, 206° | 297 W/m² | - |
| 1778021382 | 17.78° C | 79% | 1017.6 hPa | 0 mm | 2.24 m/s, 202° | 269 W/m² | - |
| 1778021079 | 17.78° C | 78% | 1017.5 hPa | 0 mm | 3.58 m/s, 201° | 193 W/m² | - |
| 1778020777 | 17.78° C | 78% | 1017.6 hPa | 0 mm | 1.79 m/s, 214° | 143 W/m² | - |
| 1778020473 | 17.78° C | 78% | 1017.6 hPa | 0 mm | 2.24 m/s, 195° | 115 W/m² | - |
| 1778020170 | 17.78° C | 78% | 1017.7 hPa | 0 mm | 1.79 m/s, 209° | 91 W/m² | - |
| 1778019866 | 17.78° C | 78% | 1017.7 hPa | 0 mm | 0.89 m/s, 215° | 81 W/m² | - |
| 1778019562 | 17.78° C | 78% | 1017.7 hPa | 0 mm | 0 m/s | 74 W/m² | - |
| 1778019260 | 18.33° C | 78% | 1017.8 hPa | 0 mm | 0.45 m/s, 162° | 74 W/m² | - |
| 1778018957 | 18.33° C | 77% | 1017.7 hPa | 0 mm | 0.45 m/s, 57° | 81 W/m² | - |
| 1778018653 | 18.33° C | 77% | 1017.6 hPa | 0 mm | 1.34 m/s, 79° | 104 W/m² | - |
| 1778018351 | 18.33° C | 78% | 1017.8 hPa | 0 mm | 0.45 m/s, 137° | 164 W/m² | - |
| 1778018049 | 18.89° C | 76% | 1017.6 hPa | 0 mm | 0.89 m/s, 178° | 262 W/m² | - |
| 1778017747 | 18.33° C | 77% | 1017.9 hPa | 0 mm | 0.89 m/s, 216° | 300 W/m² | - |
| 1778017444 | 18.33° C | 77% | 1017.8 hPa | 0 mm | 0.45 m/s, 232° | 441 W/m² | - |
| 1778017141 | 18.33° C | 77% | 1017.9 hPa | 0 mm | 0.89 m/s, 140° | 373 W/m² | - |
| 1778016839 | 18.33° C | 79% | 1017.7 hPa | 0 mm | 0.45 m/s, 149° | 380 W/m² | - |
| 1778016535 | 17.78° C | 78% | 1018 hPa | 0 mm | 0.45 m/s, 183° | 639 W/m² | - |
| 1778016232 | 18.33° C | 78% | 1017.8 hPa | 0 mm | 0.89 m/s, 173° | 373 W/m² | - |
| 1778015928 | 17.78° C | 79% | 1017.8 hPa | 0 mm | 0.89 m/s, 172° | 422 W/m² | - |
* Rain latest hour (hover to see other rain measurements)
** Current wind speed in m/s (hover to see current wind gust speed)